Regional Weather Roundup
Issued by NWS Charleston, WV

Home | Current Version | Previous Version | Graphics & Text | Print | Product List | Glossary On
Versions: 1 2 3 4 5 6 7 8 9 10 11 12 13 14 15 16 17 18 19 20 21 22 23 24 25 26 27 28
000
ASUS41 KRLX 250510
RWRRLX
West Virginia Regional Weather Roundup
National Weather Service Charleston WV
100 AM EDT MON SEP 25 2017

Note: "fair" indicates few or no clouds below 12,000 feet with no
significant weather and/or obstructions to visibility.

WVZ003-250600-
Northern Panhandle of West Virginia

CITY           SKY/WX    TMP DP  RH WIND       PRES   REMARKS
WHEELING       CLEAR     71  62  73 CALM      30.10S
$$

WVZ009-250600-
Northwest West Virginia

CITY           SKY/WX    TMP DP  RH WIND       PRES   REMARKS
PARKERSBURG    PTCLDY    67  65  93 CALM      30.09F
$$

WVZ006-250600-
Western West Virginia

CITY           SKY/WX    TMP DP  RH WIND       PRES   REMARKS
HUNTINGTON     CLEAR     65  62  90 CALM      30.05S
$$

WVZ015-250600-
West Central West Virginia

CITY           SKY/WX    TMP DP  RH WIND       PRES   REMARKS
CHARLESTON     PTCLDY    67  63  87 CALM      30.06S
$$

WVZ022-031-250600-
North Central West Virginia

CITY           SKY/WX    TMP DP  RH WIND       PRES   REMARKS
CLARKSBURG     PTCLDY    66  64  93 CALM      30.09F
MORGANTOWN     PTCLDY    69  63  81 CALM      30.11S
$$

WVZ025-035-042-045-250600-
Southern West Virginia

CITY           SKY/WX    TMP DP  RH WIND       PRES   REMARKS
BECKLEY        PTCLDY    63  55  75 CALM      30.15S
LOGAN            N/A     70  61  73 CALM      30.09S
BLUEFIELD      PTCLDY    64  53  67 E3        30.17F
LEWISBURG      CLEAR     60  57  92 NE3       30.15S
$$

WVZ047-250600-
Northern Mountains of West Virginia

CITY           SKY/WX    TMP DP  RH WIND       PRES   REMARKS
ELKINS         PTCLDY    57  55  93 CALM      30.15F FOG
$$

WVZ052-250600-
Eastern Panhandle of West Virginia

CITY           SKY/WX    TMP DP  RH WIND       PRES   REMARKS
MARTINSBURG    CLEAR     65  63  93 CALM      30.06F
PETERSBURG     CLEAR     64  63  96 CALM      30.11S
$$




USA.gov is the U.S. government's official web portal to all federal, state and local government web resources and services.